Location: De Har
(53.3413°N, 6.6858°E)
Time: 16:43:18
(UTC+00:00)

Cosmos 2278 - Pass Details

Date: 22 April 2026
Orbit: 836 x 852 km, 71.1° (Epoch: 9 May)

Event Time Altitude Azimuth Distance (km) Brightness Sun altitude
Rises 00:57:44 0° 328° (NNW) 3,428 7.4 -22.0°
Reaches altitude 10° 01:00:12 10° 330° (NNW) 2,491 6.6 -21.8°
Maximum altitude 01:05:56 75° 56° (NE) 889 3.8 -21.5°
Enters shadow 01:11:13 12° 142° (SE) 2,322 5.7 -21.2°
